Temp
8 8 8 8 8 8 9 9 9 9 10 11 10 12 12 13 14 13 14 14 15 16 16 17 18 20 21 22 22 22 24 24 24 24 24 24 25 24 23 24 23 22 23 22 18
8 8 8 8 8 8 9 9 9 9 10 11 11 11 12 13 13 14 13 14 14 15 16 17 20 21 24 22 22 23 23 23 23 23 24 23 23 25 25 24 23 22 19 19 16
8 8 8 8 7 8 8 8 9 9 10 10 11 11 12 12 13 13 12 13 14 14 15 16 17 21 23 22 22 21 22 23 22 23 22 23 24 23 25 25 26 25 20 17 16
8 7 7 7 8 8 8 8 8 9 9 10 10 11 12 12 14 12 13 13 13 14 14 14 17 19 21 21 22 21 22 22 22 21 22 23 23 24 24 26 23 24 21 17 18
7 7 7 7 7 8 8 8 8 9 9 9 10 11 11 13 13 13 13 13 13 14 15 15 16 19 21 21 21 21 22 22 22 21 22 21 24 24 24 25 22 22 20 18 18
7 7 7 7 7 8 8 8 8 9 9 9 10 11 11 13 12 12 13 12 14 14 14 16 16 16 18 19 20 22 22 22 22 22 22 23 24 22 23 22 22 21 21 19 18
8 7 7 7 7 7 7 8 8 8 9 9 10 10 11 14 12 12 13 13 13 14 15 14 15 18 17 17 16 16 20 21 22 22 23 22 24 23 22 21 22 22 21 21 20
7 7 7 7 7 7 8 7 8 8 9 9 10 10 13 11 12 12 13 13 13 14 14 14 14 15 16 15 15 15 16 19 22 21 22 22 23 24 22 22 23 22 22 20 21
7 7 7 7 7 7 7 7 8 8 8 9 9 11 12 11 11 12 13 13 13 13 13 13 14 16 15 17 16 14 17 17 21 20 21 22 23 23 21 21 23 23 22 21 21
7 7 7 7 8 7 7 8 8 8 9 9 9 11 12 12 11 11 12 12 13 13 13 14 14 15 15 18 17 16 17 18 18 20 19 22 22 23 22 21 23 22 22 21 21
7 7 7 7 7 7 7 8 9 9 9 10 11 11 11 11 11 11 11 12 13 14 15 14 14 15 16 18 16 18 17 17 17 17 19 21 22 23 22 22 23 23 22 21 21
7 7 7 7 7 7 7 8 8 8 9 8 9 10 10 10 12 12 11 13 13 14 14 14 15 15 16 16 16 15 17 18 16 15 16 19 20 21 21 22 22 23 22 21 20
7 7 7 7 7 6 7 7 7 6 9 9 9 10 11 11 12 12 12 13 13 14 13 15 16 17 16 15 16 16 17 17 18 15 16 18 19 20 21 20 18 18 18 20 20
7 7 7 6 6 6 7 7 7 7 8 9 8 10 11 12 11 11 12 13 13 14 14 14 16 16 16 16 16 16 17 17 15 17 17 18 19 20 22 20 17 16 17 17 16
7 7 7 7 6 6 6 7 7 7 8 8 9 9 10 11 11 11 10 13 13 13 14 15 15 15 16 17 17 16 16 16 16 15 15 16 16 21 20 19 18 15 14 14 14
7 7 7 6 6 6 6 7 7 8 7 8 9 9 10 11 11 11 12 12 10 12 13 15 13 15 17 17 17 15 15 14 14 15 15 16 16 18 18 20 17 14 13 12 12
7 7 7 7 7 7 7 7 8 8 6 7 8 9 10 10 11 11 11 11 11 11 11 13 13 13 13 16 14 16 15 14 15 15 16 14 16 18 18 17 16 14 12 12 12
7 7 6 6 6 7 7 8 6 3 5 6 7 7 9 10 10 11 10 11 10 11 11 12 12 14 14 15 15 14 15 17 17 16 17 12 15 18 15 16 15 13 12 12 11
7 7 6 6 6 7 6 7 7 5 5 6 6 8 8 9 9 9 9 11 11 10 13 12 12 11 12 12 15 14 13 14 14 10 15 15 15 14 14 13 13 12 12 11 10
7 6 5 5 6 6 6 7 5 6 5 5 7 7 8 8 8 9 9 9 11 11 11 12 12 10 11 11 12 14 14 13 13 14 15 15 15 19 13 13 12 12 11 10 8
8 7 5 5 5 5 7 6 5 5 6 6 6 7 7 8 8 8 9 8 10 10 11 10 12 10 10 11 11 11 12 11 14 13 15 16 17 14 15 14 13 12 10 8 6
5 6 5 5 6 0 4 4 5 6 5 5 6 6 7 7 8 9 9 8 9 11 10 10 10 11 11 8 9 10 12 13 16 12 13 13 16 11 12 14 13 11 8 7 6
5 5 4 5 6 4 3 5 5 6 5 5 6 6 6 6 8 8 8 9 8 10 9 9 10 11 10 10 8 10 10 12 13 13 13 15 18 11 12 14 13 10 8 6 5
5 6 4 3 1 4 3 5 5 6 6 4 5 5 6 6 6 8 7 8 8 10 9 9 9 11 14 13 12 10 10 10 12 12 14 15 15 11 11 12 10 9 8 6 5
2 3 -1 6 4 3 4 4 5 5 5 5 5 5 5 7 7 7 7 7 8 9 9 9 9 10 10 10 11 12 11 9 11 13 14 15 15 14 11 11 10 10 8 7 6
4 3 -1 -0 1 5 3 4 4 3 4 5 5 5 6 6 6 6 7 7 8 7 9 9 9 9 8 10 11 10 11 11 11 12 12 13 13 13 12 11 10 9 8 7 7
0 1 5 1 2 5 5 4 5 5 4 4 4 5 4 4 3 3 4 5 7 7 8 8 8 8 11 9 10 10 11 11 12 12 14 13 15 11 10 10 9 9 9 8 7
Height
843 843 843 844 843 841 841 840 839 838 836 834 835 833 832 831 831 830 830 827 828 829 827 827 829 829 831 833 833 833 835 835 833 835 834 829 828 826 827 827 828 830 829 832 839
844 843 842 842 842 841 840 839 839 838 837 835 834 831 831 830 829 829 830 827 829 829 827 829 829 828 828 833 833 832 838 835 832 832 832 833 830 826 826 827 828 830 835 836 840
843 841 841 841 842 841 839 839 838 837 836 835 833 832 829 828 829 827 828 829 829 830 829 828 831 826 826 829 832 836 838 832 834 832 832 832 829 828 826 827 820 823 833 838 840
841 840 840 839 839 840 839 838 837 837 836 835 833 832 829 830 830 825 824 827 828 828 829 829 830 828 826 831 828 837 834 833 834 834 833 832 831 828 827 820 823 821 829 836 839
839 839 839 838 838 838 838 836 836 836 835 834 833 831 829 829 826 825 824 824 826 825 824 825 827 825 823 824 828 833 833 834 831 834 833 832 829 829 825 820 824 824 830 836 839
837 837 837 836 836 837 837 836 834 834 834 833 832 830 830 827 827 825 825 824 824 824 824 823 823 823 827 821 830 827 829 832 829 831 833 832 828 830 825 823 824 827 829 834 839
835 835 835 835 834 835 835 835 834 833 832 832 831 830 829 824 826 825 825 825 825 825 824 825 826 824 826 834 836 839 837 831 830 829 832 832 829 830 826 826 823 825 828 832 837
832 833 834 834 834 834 834 834 833 832 832 831 831 830 825 826 826 826 826 827 825 823 825 825 827 829 833 838 840 844 843 838 823 831 831 834 833 825 826 826 823 824 827 832 836
830 831 833 833 834 833 834 833 832 831 831 831 831 830 824 825 826 826 827 828 825 825 825 826 829 829 836 833 840 846 841 841 830 833 833 831 828 823 825 826 824 823 825 830 834
828 829 830 832 832 832 833 832 831 831 831 831 831 832 826 823 825 825 826 827 825 825 827 829 829 830 832 827 835 840 841 835 836 831 837 830 827 823 823 824 823 824 826 829 833
825 828 829 830 831 832 833 832 834 833 830 826 826 825 822 824 824 823 825 826 825 825 824 826 828 826 826 821 829 826 832 837 835 838 835 829 826 820 822 823 821 821 825 828 832
824 826 828 829 830 831 832 831 830 833 828 829 828 827 825 824 823 824 826 828 826 824 825 829 826 826 823 827 830 835 831 833 842 843 847 836 831 823 822 822 821 820 821 826 831
823 826 827 828 830 832 831 832 831 830 827 829 828 826 824 826 821 822 824 824 824 823 827 822 821 818 822 826 831 830 831 834 832 845 842 837 833 825 817 825 829 829 827 826 829
821 824 827 829 834 831 831 830 831 831 830 829 830 826 825 824 822 823 825 826 827 825 827 827 821 820 824 827 829 835 828 829 839 840 843 835 836 818 813 820 829 833 831 833 837
821 824 827 829 830 831 831 830 831 831 831 831 827 826 824 824 822 823 824 823 822 822 824 820 823 823 826 823 824 830 831 832 835 845 846 844 847 809 813 821 826 836 840 841 842
822 825 827 829 830 830 830 830 833 833 831 830 824 826 824 822 822 824 823 825 829 825 823 821 826 822 821 820 821 831 835 842 848 845 845 837 842 824 823 814 826 836 843 846 848
821 825 828 829 831 830 830 832 833 827 839 831 828 823 821 821 821 820 821 824 825 825 826 824 826 827 827 825 831 825 836 848 849 846 833 843 837 817 818 818 823 834 844 848 848
823 826 828 829 831 831 831 834 840 856 843 836 833 830 825 821 821 820 821 821 828 824 826 825 835 826 826 823 823 833 830 823 829 831 829 851 834 813 823 822 827 836 844 848 851
824 827 829 832 832 832 834 831 827 843 841 838 834 827 829 825 823 824 825 819 818 825 817 822 828 833 831 831 825 831 837 835 837 862 839 831 828 829 828 832 837 843 846 850 856
826 827 831 832 834 834 836 829 838 837 838 838 827 831 824 826 827 826 826 826 819 821 824 823 824 837 833 833 831 827 831 842 842 838 831 827 826 801 829 832 838 843 848 855 862
827 829 833 833 835 837 830 834 837 836 836 833 832 831 829 827 823 826 823 827 820 823 823 828 823 838 840 832 835 838 834 841 831 834 822 819 807 820 818 825 833 840 850 859 865
828 830 834 834 837 853 842 842 838 834 838 834 833 833 830 828 824 821 819 825 822 819 823 828 831 827 829 842 839 835 829 826 815 834 833 830 811 830 827 823 829 840 853 859 865
830 833 834 834 833 843 844 838 837 834 837 834 832 832 833 829 821 821 822 823 823 820 824 829 831 826 834 838 842 834 835 831 827 825 829 818 801 827 824 823 830 840 853 861 865
830 831 836 837 845 839 842 838 837 834 834 837 835 834 830 828 829 822 824 826 826 822 825 827 833 820 803 808 818 830 835 834 828 830 820 814 812 828 826 824 835 844 853 858 865
832 836 842 832 839 841 839 841 838 836 835 834 833 835 832 826 827 822 826 827 828 824 824 827 826 828 829 825 819 815 823 835 827 818 818 807 809 811 822 826 836 843 852 857 864
830 834 845 846 846 836 841 840 837 843 839 834 834 834 830 828 829 827 824 824 822 827 824 825 829 829 836 828 823 824 824 823 824 823 821 816 812 812 820 830 838 844 849 856 859
828 829 826 843 842 834 831 836 834 836 840 839 838 836 836 840 838 838 835 830 826 823 824 826 833 833 822 835 830 828 815 816 810 811 805 807 800 817 825 827 829 835 842 848 855
Wind_Speed
5 6 7 7 8 7 6 7 8 7 5 6 6 7 6 6 3 4 4 3 6 5 4 3 4 9 3 2 1 0 3 3 2 1 3 4 2 2 1 5 3 2 1 2 22
5 5 6 6 7 7 7 6 8 8 6 4 7 6 7 5 3 3 4 5 7 3 2 3 8 11 10 3 2 3 2 2 2 1 2 3 2 1 4 5 5 5 5 16 23
5 5 5 6 6 7 6 7 6 9 7 4 4 5 7 4 2 2 1 6 7 8 7 4 6 6 15 6 5 3 4 2 3 1 3 5 1 1 3 5 4 6 11 18 22
7 6 6 5 5 6 6 6 7 7 8 4 3 5 4 1 4 3 3 3 6 7 10 7 5 7 9 13 8 7 5 3 4 1 1 3 5 2 6 2 3 4 16 21 20
9 7 7 8 7 6 7 6 6 6 7 5 3 4 1 3 2 5 5 1 4 6 6 5 5 8 16 7 8 13 11 6 4 2 1 3 3 4 6 5 3 8 15 16 19
8 9 9 11 8 7 7 6 6 6 5 6 4 3 2 4 2 2 3 2 2 2 3 5 3 1 3 4 12 10 16 9 5 3 0 3 3 3 2 3 3 9 12 13 17
10 8 8 6 7 8 7 6 7 5 4 5 3 1 2 2 2 4 1 2 4 4 2 3 1 2 6 5 1 2 13 9 9 5 4 3 7 4 3 3 4 7 9 11 16
9 7 7 6 6 8 8 7 7 5 3 3 2 2 3 3 4 1 1 0 2 4 2 3 3 5 1 6 4 3 6 15 11 7 6 6 10 4 2 3 6 6 7 9 12
9 9 8 7 7 8 7 7 6 3 3 2 2 3 3 3 1 5 1 1 3 4 4 4 2 3 3 6 4 3 4 16 19 7 5 10 13 4 2 4 7 7 7 8 9
9 9 9 8 7 6 5 5 2 2 3 4 0 3 3 2 1 2 4 2 1 5 4 3 2 4 4 8 7 4 4 11 20 9 7 13 17 6 3 4 7 7 6 7 8
10 7 7 7 5 7 5 1 2 2 3 2 2 2 2 2 1 1 3 1 2 2 6 3 3 6 9 13 2 6 6 3 1 2 5 15 15 13 6 5 6 7 7 8 8
10 7 6 5 7 7 4 2 1 1 2 4 2 4 3 1 2 1 6 7 5 7 4 2 5 2 5 5 4 1 5 7 3 4 6 7 15 10 6 6 7 5 7 8 10
8 7 7 8 8 6 3 3 1 1 1 1 3 3 1 3 2 4 10 5 4 9 7 9 1 9 3 5 7 5 6 4 4 3 1 1 8 10 11 7 1 2 1 8 11
9 7 10 10 6 4 3 6 6 2 1 3 2 2 4 3 4 1 7 6 5 12 7 8 8 6 8 11 5 3 4 5 8 6 5 7 4 13 18 10 5 2 5 7 11
8 12 11 9 6 3 1 4 4 1 2 2 3 2 2 4 4 2 1 7 10 9 7 6 6 9 9 10 11 2 4 5 5 6 1 5 4 5 9 14 9 6 7 9 10
11 13 10 5 4 3 2 5 2 2 3 1 3 3 6 6 1 4 3 3 2 4 3 5 1 5 8 5 13 12 7 6 4 2 5 9 8 3 7 15 10 9 10 11 13
14 13 7 5 2 4 4 2 2 4 2 3 1 4 8 7 5 3 7 8 4 4 5 6 4 2 1 8 7 5 8 2 3 3 5 0 9 9 3 5 14 16 14 14 15
17 9 6 5 4 3 2 1 3 1 3 2 0 1 7 5 4 5 7 8 5 6 4 8 5 9 5 4 6 9 5 4 5 5 3 2 6 2 4 5 13 14 16 16 17
14 12 6 5 4 3 2 4 2 4 2 3 3 4 5 3 1 4 6 4 6 6 4 4 3 0 3 1 2 6 6 2 4 2 2 4 2 3 8 12 15 17 18 17 15
7 5 4 1 3 5 1 0 2 3 2 1 4 2 8 8 7 6 8 3 7 10 1 3 3 2 3 1 3 4 13 3 1 6 5 5 5 5 12 17 18 18 18 15 12
4 2 3 4 5 1 0 1 2 4 4 4 3 3 3 5 6 4 5 1 5 8 8 3 1 3 1 5 6 4 4 2 2 1 3 2 3 2 14 18 21 19 15 11 10
3 1 4 7 1 1 1 1 3 2 3 1 1 2 3 3 6 5 7 2 5 10 9 3 1 2 3 1 2 1 2 4 5 5 2 1 2 1 6 15 18 16 13 11 11
1 1 3 3 2 1 1 2 2 0 1 1 1 1 2 2 4 4 5 2 3 5 8 7 3 4 3 1 1 3 2 4 2 1 6 4 1 4 5 15 16 17 15 12 12
2 2 2 3 2 3 4 2 2 3 2 2 1 2 2 4 1 2 5 3 1 5 5 4 2 3 1 3 5 4 5 6 4 3 4 5 2 4 8 16 17 17 16 13 12
3 1 2 2 1 2 2 2 1 2 1 1 2 1 3 3 3 3 2 3 1 4 7 5 3 2 1 2 3 4 9 10 7 6 8 1 7 10 16 16 16 16 16 16 15
3 4 1 2 1 3 1 3 3 2 2 1 1 4 5 2 1 4 2 4 3 3 4 4 3 2 0 1 3 2 6 14 14 8 7 6 7 4 14 14 16 18 18 17 16
3 2 1 1 1 1 1 2 1 3 2 2 2 1 6 4 4 4 3 2 1 3 3 4 6 3 4 0 3 5 16 16 12 11 12 11 4 15 16 19 20 20 20 19 18
Wind_Direction
336 349 343 337 341 342 329 327 316 319 331 346 341 330 330 313 294 182 216 186 226 236 276 190 203 204 161 166 118 208 254 160 98 88 89 22 287 121 123 147 170 115 95 86 150
320 322 334 320 319 331 335 325 329 327 316 330 331 344 336 307 310 221 209 196 220 215 214 186 188 183 204 150 149 227 264 143 58 42 35 358 314 233 208 168 185 162 81 136 146
282 291 300 318 315 309 322 337 335 335 328 317 326 334 346 327 296 129 246 219 217 207 177 194 244 188 199 186 172 155 238 163 138 45 338 342 58 269 236 208 218 208 157 159 156
253 269 282 284 292 296 306 315 318 322 335 311 297 305 346 260 211 345 353 238 215 196 163 146 206 169 188 193 180 220 241 214 148 174 334 331 320 248 250 36 4 237 163 165 170
242 267 280 288 275 283 293 307 310 304 324 306 306 293 344 208 257 341 351 248 211 189 172 160 183 190 207 185 209 222 210 209 160 161 284 305 304 308 257 270 26 144 159 176 179
260 261 269 287 260 268 278 301 303 304 303 308 309 291 288 204 9 341 11 181 211 188 168 160 179 339 128 117 204 217 219 205 187 176 223 285 315 292 51 311 142 161 174 180 186
263 273 262 275 241 263 271 286 304 290 298 306 293 318 262 213 63 26 353 221 197 171 163 180 127 193 135 140 46 223 210 199 209 210 240 270 264 247 4 289 227 188 183 186 192
254 266 246 260 270 256 259 280 298 290 277 278 235 219 241 280 278 258 30 258 133 151 137 153 149 95 87 123 76 156 205 219 199 201 215 220 252 259 349 237 239 214 197 193 191
249 252 241 248 272 258 251 276 302 276 249 235 201 224 222 320 207 191 157 241 125 113 106 125 176 127 163 168 107 163 221 212 214 191 222 215 253 213 318 244 245 228 215 197 190
234 242 239 243 274 224 235 288 281 242 199 144 117 221 235 166 187 185 166 136 133 132 122 165 103 162 191 194 196 165 193 204 208 185 217 223 249 225 250 248 250 234 214 203 199
221 226 231 232 213 200 235 237 186 183 224 249 208 283 55 140 223 188 181 137 111 182 173 173 192 200 186 198 77 170 155 143 198 94 210 217 233 234 213 262 243 228 210 200 196
210 200 202 194 183 200 213 243 3 16 224 239 289 263 279 271 147 217 171 189 192 179 154 153 209 154 133 157 149 136 154 166 137 154 220 209 236 244 213 246 263 264 202 186 160
186 180 183 166 172 184 200 227 71 116 250 187 243 249 209 209 193 173 182 177 202 177 197 216 218 191 156 106 206 197 192 183 107 115 39 174 260 242 239 193 195 46 109 178 169
166 170 156 155 157 180 220 224 250 341 40 184 208 237 209 210 202 173 196 194 198 204 185 224 226 175 199 207 191 222 221 155 138 163 232 197 264 210 225 211 165 140 131 135 129
156 153 147 159 147 194 301 192 196 215 237 111 183 300 170 202 124 150 294 190 195 176 185 176 191 192 213 213 190 164 153 149 176 153 80 200 260 229 213 218 203 152 131 115 111
146 154 158 155 152 222 166 143 127 194 249 201 170 194 179 205 142 138 149 100 333 175 181 181 20 213 206 179 192 142 100 61 55 140 232 197 205 222 193 218 175 141 128 122 114
141 151 153 155 172 149 143 144 192 215 24 168 177 176 198 185 215 227 166 184 173 150 163 175 154 141 250 174 152 155 135 137 190 228 235 108 201 243 222 209 184 154 141 132 121
132 142 120 117 106 119 117 111 259 63 246 341 249 287 202 177 215 207 173 193 203 189 132 179 181 186 153 241 182 182 203 205 210 191 159 105 225 176 333 130 140 139 133 128 121
130 102 92 108 115 44 52 196 240 192 185 200 165 154 207 176 214 186 208 215 193 197 204 162 152 111 68 5 187 163 206 354 97 25 180 194 234 178 132 132 137 137 138 128 123
127 100 57 174 121 54 160 150 223 208 152 183 226 241 189 172 191 198 174 176 180 191 209 136 141 19 88 16 30 240 142 128 174 185 222 195 247 220 178 160 154 151 147 137 128
114 89 24 128 129 81 228 96 246 224 202 215 176 216 243 205 182 203 179 154 189 151 161 149 306 124 139 197 180 144 184 64 116 235 241 195 206 17 186 172 165 159 151 137 133
118 85 9 153 327 34 137 249 322 46 26 241 270 233 246 200 176 196 200 249 216 160 165 115 81 173 200 20 6 27 204 189 220 188 251 350 256 323 219 180 166 154 145 140 136
95 105 35 131 256 178 241 237 258 173 99 323 237 244 184 257 222 170 181 120 250 139 163 156 184 143 127 216 28 206 196 186 187 72 194 190 187 360 182 172 164 152 153 147 147
141 134 22 65 8 158 169 199 220 199 151 150 305 270 227 215 231 179 160 163 223 201 132 142 134 260 210 94 125 181 166 191 170 200 190 236 165 176 168 167 161 159 156 151 152
19 123 326 151 200 145 154 127 202 207 330 12 175 7 251 194 165 189 133 144 199 180 152 169 150 141 57 102 145 167 168 186 207 225 217 252 221 194 185 177 170 161 156 154 162
152 151 157 110 261 199 49 174 202 205 256 151 90 359 181 219 317 194 175 178 193 183 147 188 138 133 166 253 206 213 215 205 209 220 250 255 244 211 164 162 165 166 166 166 163
140 123 171 132 191 218 183 148 212 166 79 10 95 47 71 35 21 7 324 30 46 146 131 147 142 162 188 336 129 286 221 206 206 209 204 204 198 156 167 177 177 170 175 173 165